Precipitable_Water
0.54 0.53 0.53 0.50 0.50 0.49 0.48 0.47 0.47 0.46 0.46 0.45 0.44 0.44 0.43 0.43 0.44 0.44 0.44 0.44 0.44 0.44 0.43 0.43 0.43 0.41 0.40 0.41 0.41 0.39 0.41 0.31 0.24 0.22 0.22 0.18 0.20 0.24 0.27 0.38 0.45 0.65 0.92 0.93 0.86 0.80 0.78 0.89 0.96 1.21 1.18 1.27 1.23 1.27 1.51 1.52 1.49 1.38 1.11 0.96 0.85 0.89 0.85 0.89 0.84 0.83 0.77 0.74 0.86 0.96 0.99 0.89 0.79 0.99 1.11 1.25 1.23 1.22 1.28 1.30 1.37 1.47 1.44 1.47 1.49 1.57 1.56 1.61
0.51 0.50 0.47 0.48 0.49 0.49 0.49 0.50 0.48 0.46 0.45 0.45 0.44 0.43 0.43 0.43 0.43 0.43 0.44 0.44 0.44 0.44 0.43 0.43 0.44 0.44 0.43 0.42 0.42 0.42 0.38 0.28 0.21 0.22 0.19 0.22 0.26 0.26 0.28 0.40 0.43 0.62 0.90 0.81 0.71 0.67 0.67 0.76 0.89 1.02 1.02 0.98 1.34 1.19 1.40 1.29 1.45 1.16 1.06 0.99 0.84 0.92 0.94 1.05 1.00 0.96 0.80 0.72 0.86 0.94 0.99 0.90 0.84 0.87 1.04 0.92 0.98 1.04 1.08 1.22 1.31 1.33 1.40 1.47 1.51 1.56 1.54 1.53
0.48 0.46 0.46 0.47 0.47 0.47 0.48 0.48 0.48 0.46 0.45 0.45 0.45 0.44 0.43 0.43 0.42 0.42 0.42 0.42 0.43 0.42 0.42 0.43 0.44 0.44 0.45 0.45 0.44 0.45 0.37 0.24 0.23 0.21 0.33 0.44 0.37 0.30 0.28 0.42 0.46 0.64 0.66 0.62 0.71 0.65 0.63 0.64 0.84 0.94 0.97 0.91 1.11 1.08 1.23 1.19 1.28 1.22 1.07 0.89 0.92 0.99 0.99 1.02 1.03 0.93 0.96 0.81 0.87 0.90 0.93 0.91 0.99 0.91 1.00 0.82 0.93 0.99 0.89 0.97 1.18 1.20 1.20 1.29 1.40 1.49 1.51 1.50
0.49 0.47 0.47 0.46 0.45 0.44 0.45 0.44 0.43 0.45 0.45 0.46 0.46 0.46 0.46 0.44 0.42 0.41 0.42 0.42 0.41 0.42 0.43 0.43 0.43 0.44 0.45 0.45 0.47 0.46 0.35 0.25 0.15 0.30 0.37 0.44 0.44 0.30 0.28 0.44 0.49 0.57 0.60 0.55 0.64 0.65 0.69 0.82 0.92 0.99 0.93 0.89 0.99 1.18 1.09 1.14 1.12 1.20 1.10 0.95 0.93 1.03 0.97 0.97 1.02 1.01 1.01 0.83 0.89 0.88 0.96 0.91 0.94 0.89 0.83 0.81 0.85 0.84 0.94 1.00 1.04 1.08 1.15 1.24 1.34 1.42 1.46 1.43
0.51 0.50 0.49 0.47 0.45 0.44 0.43 0.42 0.42 0.41 0.44 0.45 0.45 0.46 0.46 0.44 0.43 0.42 0.41 0.41 0.41 0.41 0.42 0.44 0.43 0.44 0.44 0.46 0.47 0.48 0.28 0.14 0.24 0.46 0.47 0.45 0.37 0.27 0.29 0.42 0.51 0.55 0.56 0.53 0.65 0.78 0.74 0.73 0.88 0.97 0.97 0.81 0.97 1.10 1.09 1.15 1.20 1.14 1.00 1.03 1.04 1.05 0.94 0.97 0.97 1.00 0.96 0.83 0.83 0.87 0.84 0.80 0.97 0.91 0.83 0.79 0.71 0.73 0.91 1.07 1.08 1.12 1.23 1.23 1.27 1.37 1.41 1.36
0.54 0.51 0.49 0.48 0.47 0.46 0.45 0.44 0.43 0.43 0.42 0.41 0.43 0.42 0.42 0.43 0.43 0.42 0.41 0.41 0.41 0.40 0.42 0.44 0.45 0.44 0.44 0.47 0.46 0.43 0.24 0.07 0.31 0.45 0.53 0.52 0.46 0.37 0.38 0.40 0.49 0.57 0.58 0.51 0.52 0.62 0.70 0.72 0.77 0.83 0.87 0.86 0.87 0.93 1.05 1.14 1.19 0.91 0.99 1.03 1.05 1.03 0.95 0.99 1.01 0.97 0.98 0.82 0.79 0.83 0.82 0.86 0.85 0.80 0.85 0.76 0.74 0.88 1.09 1.15 1.16 1.15 1.20 1.30 1.35 1.37 1.32 1.31
0.58 0.55 0.51 0.48 0.47 0.46 0.45 0.44 0.42 0.40 0.40 0.42 0.42 0.41 0.42 0.42 0.42 0.42 0.41 0.41 0.40 0.40 0.42 0.44 0.46 0.45 0.44 0.47 0.49 0.35 0.20 0.18 0.24 0.36 0.47 0.55 0.49 0.47 0.44 0.46 0.54 0.48 0.46 0.40 0.42 0.44 0.59 0.71 0.82 0.81 0.84 0.84 0.92 0.99 1.04 1.03 1.08 0.98 0.87 0.99 0.98 1.01 0.95 0.99 0.98 1.01 0.96 0.86 0.79 0.79 0.78 0.74 0.79 0.70 0.84 0.76 0.90 1.00 1.15 1.23 1.22 1.19 1.20 1.27 1.26 1.32 1.27 1.25
0.63 0.61 0.57 0.53 0.49 0.47 0.45 0.44 0.43 0.42 0.41 0.41 0.39 0.39 0.39 0.39 0.39 0.40 0.41 0.41 0.40 0.40 0.42 0.44 0.47 0.46 0.48 0.39 0.29 0.21 0.23 0.18 0.27 0.30 0.33 0.43 0.55 0.56 0.59 0.56 0.50 0.46 0.38 0.30 0.32 0.35 0.50 0.68 0.68 0.85 0.84 0.79 0.84 0.94 1.00 0.95 0.98 0.89 0.85 0.93 0.96 1.00 0.96 0.97 0.99 0.99 0.96 0.90 0.84 0.82 0.77 0.68 0.68 0.68 0.77 0.82 0.95 1.08 1.17 1.26 1.27 1.27 1.29 1.24 1.19 1.26 1.28 1.25
0.67 0.65 0.62 0.59 0.55 0.50 0.46 0.44 0.43 0.42 0.43 0.42 0.41 0.39 0.38 0.38 0.37 0.38 0.39 0.40 0.41 0.41 0.43 0.46 0.46 0.49 0.55 0.39 0.22 0.18 0.17 0.24 0.29 0.32 0.39 0.45 0.52 0.57 0.56 0.46 0.53 0.40 0.32 0.29 0.30 0.30 0.42 0.63 0.68 0.80 0.71 0.76 0.90 0.90 0.97 0.89 0.77 0.90 0.85 0.91 0.92 0.93 0.94 0.96 0.96 0.94 0.88 0.86 0.84 0.81 0.77 0.73 0.68 0.75 0.72 0.88 1.01 1.11 1.19 1.23 1.23 1.24 1.23 1.21 1.15 1.20 1.23 1.21
0.70 0.68 0.65 0.64 0.61 0.57 0.53 0.49 0.45 0.43 0.43 0.42 0.41 0.40 0.38 0.38 0.37 0.37 0.37 0.38 0.39 0.40 0.43 0.47 0.49 0.51 0.44 0.33 0.30 0.16 0.21 0.34 0.40 0.44 0.44 0.47 0.54 0.52 0.47 0.43 0.47 0.41 0.35 0.31 0.30 0.29 0.33 0.57 0.65 0.80 0.84 0.83 0.90 0.86 0.95 0.93 0.81 0.91 0.88 0.87 0.84 0.84 0.90 0.94 0.89 0.86 0.82 0.80 0.83 0.80 0.79 0.73 0.71 0.70 0.72 0.93 1.03 1.15 1.15 1.16 1.20 1.17 1.16 1.19 1.15 1.17 1.22 1.19
0.74 0.71 0.68 0.66 0.64 0.62 0.58 0.54 0.51 0.48 0.45 0.42 0.40 0.39 0.39 0.38 0.37 0.36 0.36 0.37 0.39 0.39 0.43 0.47 0.52 0.49 0.32 0.39 0.21 0.16 0.29 0.27 0.47 0.59 0.52 0.54 0.54 0.48 0.44 0.46 0.42 0.37 0.35 0.33 0.27 0.29 0.32 0.52 0.72 0.85 0.86 0.76 0.84 0.81 0.84 0.84 0.90 0.83 0.83 0.84 0.82 0.83 0.84 0.87 0.90 0.90 0.84 0.79 0.83 0.83 0.78 0.74 0.75 0.70 0.70 0.92 1.03 1.09 1.07 1.08 1.11 1.11 1.13 1.13 1.16 1.15 1.20 1.21
0.76 0.75 0.73 0.70 0.68 0.66 0.64 0.62 0.58 0.55 0.49 0.44 0.41 0.39 0.39 0.39 0.37 0.35 0.36 0.37 0.39 0.40 0.43 0.46 0.50 0.51 0.41 0.30 0.21 0.19 0.33 0.37 0.44 0.47 0.59 0.60 0.50 0.49 0.48 0.49 0.41 0.31 0.32 0.27 0.27 0.30 0.33 0.46 0.72 0.80 0.67 0.82 0.72 0.82 0.76 0.83 0.76 0.72 0.73 0.64 0.66 0.73 0.74 0.81 0.83 0.87 0.87 0.80 0.85 0.83 0.73 0.69 0.74 0.68 0.85 0.98 1.07 1.06 1.01 1.02 1.06 1.07 1.07 1.07 1.12 1.15 1.17 1.17
0.79 0.77 0.76 0.75 0.73 0.71 0.66 0.63 0.61 0.57 0.54 0.49 0.44 0.41 0.39 0.37 0.37 0.37 0.37 0.38 0.39 0.41 0.45 0.46 0.49 0.49 0.35 0.18 0.21 0.29 0.31 0.32 0.30 0.31 0.35 0.47 0.52 0.51 0.53 0.53 0.46 0.37 0.34 0.28 0.25 0.29 0.33 0.48 0.72 0.73 0.81 0.79 0.74 0.61 0.71 0.70 0.66 0.63 0.62 0.56 0.51 0.52 0.55 0.68 0.84 0.85 0.82 0.82 0.81 0.78 0.57 0.60 0.71 0.82 0.94 1.05 1.07 1.06 0.97 0.96 1.03 1.07 1.03 1.02 1.08 1.10 1.16 1.22
0.80 0.78 0.76 0.75 0.73 0.71 0.70 0.67 0.63 0.60 0.56 0.53 0.49 0.44 0.40 0.37 0.37 0.38 0.41 0.40 0.42 0.43 0.47 0.50 0.53 0.44 0.29 0.14 0.23 0.29 0.33 0.33 0.32 0.30 0.29 0.32 0.38 0.44 0.52 0.55 0.54 0.44 0.47 0.37 0.31 0.32 0.32 0.52 0.69 0.76 0.90 0.77 0.67 0.79 0.68 0.63 0.61 0.53 0.52 0.50 0.45 0.42 0.41 0.61 0.77 0.79 0.75 0.83 0.78 0.77 0.58 0.60 0.68 0.89 0.97 1.05 1.06 1.02 0.91 0.93 0.97 1.02 1.05 0.98 1.01 1.08 1.11 1.16
0.82 0.79 0.77 0.74 0.73 0.71 0.70 0.69 0.66 0.62 0.59 0.57 0.52 0.47 0.42 0.38 0.40 0.43 0.44 0.44 0.45 0.49 0.50 0.59 0.56 0.38 0.21 0.17 0.33 0.34 0.38 0.43 0.33 0.30 0.32 0.29 0.29 0.35 0.45 0.53 0.49 0.46 0.47 0.47 0.40 0.34 0.36 0.54 0.67 0.68 0.63 0.72 0.70 0.62 0.56 0.54 0.53 0.51 0.45 0.41 0.44 0.39 0.39 0.47 0.67 0.74 0.70 0.80 0.78 0.72 0.58 0.60 0.71 0.88 0.98 1.08 1.10 1.03 0.97 0.97 0.96 0.97 1.01 0.96 0.95 1.01 1.09 1.10
0.85 0.82 0.79 0.75 0.72 0.72 0.70 0.68 0.65 0.63 0.61 0.58 0.53 0.49 0.45 0.45 0.47 0.49 0.50 0.48 0.49 0.51 0.57 0.44 0.44 0.37 0.25 0.14 0.20 0.45 0.37 0.31 0.30 0.34 0.37 0.33 0.31 0.28 0.38 0.46 0.50 0.46 0.45 0.45 0.47 0.40 0.38 0.56 0.56 0.56 0.56 0.59 0.53 0.48 0.45 0.45 0.45 0.46 0.40 0.37 0.37 0.38 0.38 0.41 0.56 0.65 0.70 0.74 0.75 0.69 0.59 0.66 0.72 0.89 1.00 1.08 1.06 1.03 0.97 0.95 0.94 0.96 0.99 0.96 0.89 0.96 1.04 1.10
0.84 0.83 0.81 0.79 0.77 0.74 0.72 0.69 0.67 0.64 0.62 0.57 0.54 0.50 0.47 0.60 0.65 0.65 0.64 0.63 0.60 0.65 0.57 0.43 0.52 0.52 0.19 0.33 0.48 0.28 0.28 0.32 0.42 0.43 0.39 0.38 0.33 0.31 0.33 0.39 0.42 0.40 0.41 0.44 0.44 0.44 0.41 0.47 0.52 0.52 0.51 0.45 0.46 0.45 0.39 0.36 0.36 0.38 0.40 0.36 0.38 0.35 0.37 0.37 0.49 0.61 0.69 0.69 0.66 0.72 0.65 0.65 0.72 0.88 0.95 1.03 1.01 0.99 0.94 0.95 0.93 0.95 0.95 0.97 0.87 0.92 0.99 1.04
0.84 0.83 0.82 0.80 0.78 0.76 0.74 0.70 0.68 0.67 0.63 0.58 0.55 0.52 0.58 0.69 0.69 0.66 0.64 0.65 0.67 0.64 0.59 0.65 0.61 0.40 0.22 0.32 0.20 0.17 0.25 0.30 0.41 0.43 0.41 0.38 0.36 0.34 0.33 0.35 0.39 0.37 0.36 0.36 0.40 0.32 0.36 0.35 0.44 0.37 0.40 0.40 0.40 0.36 0.31 0.27 0.33 0.35 0.36 0.36 0.36 0.37 0.38 0.38 0.39 0.50 0.60 0.66 0.63 0.67 0.66 0.68 0.72 0.86 0.93 1.00 1.04 0.96 0.90 0.92 0.89 0.90 0.92 0.95 0.84 0.88 0.95 1.00
0.84 0.81 0.79 0.79 0.79 0.78 0.75 0.71 0.68 0.67 0.64 0.60 0.57 0.57 0.73 0.73 0.73 0.71 0.61 0.60 0.47 0.41 0.32 0.35 0.34 0.17 0.15 0.32 0.39 0.41 0.39 0.47 0.47 0.45 0.39 0.37 0.34 0.33 0.34 0.38 0.40 0.35 0.27 0.26 0.31 0.30 0.32 0.30 0.35 0.31 0.27 0.31 0.32 0.32 0.29 0.34 0.39 0.38 0.39 0.38 0.35 0.32 0.35 0.36 0.43 0.50 0.54 0.59 0.62 0.65 0.62 0.68 0.67 0.79 0.90 0.97 1.01 0.94 0.92 0.95 0.92 0.89 0.92 0.94 0.82 0.85 0.91 0.94
0.84 0.82 0.80 0.78 0.77 0.78 0.76 0.72 0.69 0.66 0.65 0.59 0.53 0.48 0.54 0.40 0.40 0.44 0.56 0.50 0.37 0.32 0.32 0.36 0.43 0.36 0.31 0.26 0.32 0.43 0.52 0.53 0.41 0.40 0.41 0.40 0.29 0.27 0.30 0.33 0.33 0.34 0.28 0.20 0.24 0.25 0.31 0.21 0.21 0.20 0.24 0.29 0.32 0.33 0.32 0.35 0.38 0.39 0.41 0.37 0.34 0.34 0.35 0.40 0.42 0.46 0.55 0.57 0.60 0.64 0.65 0.67 0.63 0.70 0.82 0.90 0.97 0.95 0.92 0.90 0.92 0.89 0.89 0.92 0.80 0.79 0.87 0.89
0.84 0.82 0.80 0.78 0.77 0.77 0.76 0.72 0.69 0.66 0.66 0.62 0.56 0.48 0.38 0.40 0.34 0.30 0.35 0.37 0.39 0.39 0.35 0.33 0.36 0.34 0.29 0.32 0.37 0.43 0.41 0.42 0.48 0.45 0.42 0.46 0.35 0.30 0.27 0.29 0.27 0.24 0.24 0.24 0.20 0.24 0.26 0.20 0.19 0.22 0.25 0.28 0.31 0.34 0.33 0.32 0.36 0.38 0.38 0.35 0.33 0.34 0.33 0.40 0.42 0.46 0.56 0.53 0.59 0.66 0.65 0.66 0.67 0.68 0.77 0.88 0.90 0.87 0.88 0.86 0.89 0.93 0.90 0.91 0.85 0.76 0.81 0.85
0.83 0.81 0.79 0.78 0.78 0.76 0.75 0.72 0.69 0.68 0.67 0.62 0.54 0.48 0.49 0.49 0.52 0.52 0.43 0.31 0.37 0.38 0.37 0.35 0.34 0.32 0.38 0.35 0.32 0.43 0.44 0.38 0.38 0.42 0.48 0.43 0.36 0.28 0.27 0.25 0.23 0.20 0.24 0.24 0.22 0.21 0.18 0.15 0.18 0.23 0.26 0.28 0.29 0.31 0.32 0.30 0.31 0.37 0.35 0.33 0.32 0.32 0.37 0.41 0.40 0.43 0.57 0.56 0.55 0.64 0.62 0.64 0.70 0.71 0.73 0.80 0.81 0.83 0.88 0.86 0.86 0.91 0.93 0.92 0.90 0.76 0.78 0.89
0.81 0.78 0.78 0.78 0.77 0.76 0.75 0.72 0.69 0.72 0.62 0.54 0.50 0.53 0.50 0.56 0.59 0.59 0.49 0.37 0.32 0.37 0.33 0.32 0.29 0.29 0.28 0.31 0.30 0.38 0.32 0.29 0.29 0.38 0.40 0.39 0.35 0.29 0.28 0.24 0.24 0.23 0.25 0.24 0.18 0.17 0.15 0.16 0.19 0.23 0.25 0.25 0.25 0.27 0.28 0.28 0.29 0.32 0.33 0.31 0.28 0.35 0.35 0.34 0.40 0.44 0.48 0.56 0.56 0.60 0.59 0.62 0.70 0.76 0.73 0.78 0.80 0.82 0.88 0.89 0.89 0.92 0.92 0.92 0.91 0.85 0.79 0.83
0.79 0.77 0.76 0.76 0.76 0.75 0.76 0.70 0.72 0.69 0.55 0.56 0.56 0.54 0.58 0.61 0.60 0.57 0.43 0.31 0.28 0.33 0.36 0.36 0.33 0.31 0.29 0.27 0.27 0.27 0.25 0.28 0.32 0.32 0.44 0.38 0.31 0.33 0.28 0.24 0.24 0.24 0.22 0.23 0.22 0.18 0.16 0.21 0.23 0.23 0.23 0.22 0.21 0.23 0.24 0.24 0.22 0.27 0.33 0.31 0.30 0.35 0.37 0.38 0.40 0.43 0.45 0.52 0.59 0.58 0.58 0.60 0.67 0.70 0.70 0.75 0.80 0.81 0.84 0.89 0.89 0.92 0.94 0.95 0.95 0.91 0.87 0.82
0.76 0.76 0.76 0.75 0.73 0.75 0.72 0.71 0.69 0.62 0.60 0.56 0.58 0.58 0.60 0.60 0.58 0.56 0.41 0.34 0.33 0.33 0.42 0.38 0.38 0.34 0.34 0.37 0.31 0.23 0.26 0.27 0.32 0.36 0.41 0.39 0.34 0.32 0.27 0.30 0.26 0.22 0.23 0.26 0.25 0.23 0.21 0.24 0.29 0.24 0.22 0.22 0.20 0.19 0.21 0.22 0.20 0.23 0.28 0.32 0.31 0.35 0.36 0.39 0.40 0.40 0.39 0.39 0.54 0.58 0.48 0.51 0.64 0.68 0.67 0.71 0.72 0.74 0.81 0.82 0.83 0.88 0.92 0.93 0.90 0.88 0.91 0.88
0.72 0.73 0.73 0.73 0.72 0.72 0.73 0.56 0.57 0.60 0.56 0.51 0.54 0.59 0.60 0.60 0.59 0.53 0.41 0.30 0.23 0.31 0.38 0.29 0.38 0.30 0.39 0.30 0.30 0.25 0.25 0.21 0.28 0.35 0.41 0.41 0.41 0.33 0.32 0.27 0.26 0.20 0.24 0.27 0.26 0.25 0.22 0.26 0.27 0.26 0.23 0.21 0.20 0.17 0.18 0.21 0.18 0.18 0.20 0.29 0.33 0.36 0.36 0.37 0.38 0.38 0.34 0.31 0.47 0.60 0.44 0.45 0.61 0.63 0.66 0.68 0.69 0.69 0.76 0.77 0.80 0.84 0.88 0.89 0.89 0.90 0.90 0.89
0.66 0.67 0.68 0.69 0.70 0.72 0.57 0.51 0.63 0.63 0.49 0.49 0.57 0.60 0.58 0.58 0.58 0.49 0.36 0.27 0.22 0.33 0.29 0.37 0.33 0.31 0.35 0.32 0.30 0.27 0.16 0.19 0.26 0.34 0.37 0.42 0.36 0.40 0.29 0.24 0.24 0.24 0.27 0.28 0.26 0.20 0.26 0.26 0.26 0.26 0.25 0.22 0.20 0.16 0.17 0.17 0.16 0.14 0.18 0.26 0.30 0.35 0.37 0.38 0.39 0.39 0.37 0.40 0.48 0.53 0.50 0.43 0.47 0.59 0.68 0.69 0.67 0.68 0.70 0.74 0.76 0.80 0.83 0.85 0.87 0.90 0.90 0.91
0.59 0.59 0.60 0.61 0.64 0.66 0.59 0.63 0.62 0.53 0.52 0.57 0.64 0.60 0.58 0.57 0.55 0.49 0.35 0.20 0.18 0.39 0.30 0.33 0.34 0.37 0.33 0.31 0.30 0.24 0.22 0.24 0.19 0.28 0.35 0.39 0.39 0.35 0.30 0.24 0.21 0.20 0.22 0.23 0.14 0.17 0.26 0.23 0.24 0.23 0.23 0.22 0.20 0.19 0.17 0.17 0.15 0.13 0.17 0.21 0.25 0.30 0.35 0.39 0.40 0.39 0.38 0.36 0.33 0.47 0.54 0.43 0.43 0.54 0.69 0.70 0.64 0.66 0.67 0.69 0.73 0.76 0.80 0.84 0.86 0.88 0.91 0.93
0.52 0.52 0.54 0.55 0.57 0.58 0.61 0.60 0.56 0.51 0.57 0.62 0.63 0.63 0.59 0.59 0.53 0.40 0.31 0.20 0.31 0.32 0.41 0.29 0.44 0.34 0.31 0.31 0.28 0.26 0.24 0.24 0.19 0.23 0.35 0.39 0.39 0.34 0.27 0.26 0.24 0.24 0.24 0.23 0.16 0.19 0.24 0.25 0.27 0.25 0.23 0.19 0.21 0.23 0.22 0.20 0.14 0.15 0.18 0.20 0.22 0.28 0.34 0.38 0.38 0.38 0.37 0.34 0.29 0.33 0.45 0.41 0.41 0.53 0.60 0.69 0.65 0.63 0.65 0.68 0.70 0.74 0.78 0.83 0.85 0.87 0.89 0.94
0.48 0.46 0.48 0.50 0.48 0.45 0.50 0.58 0.51 0.53 0.60 0.62 0.65 0.63 0.64 0.57 0.42 0.31 0.25 0.18 0.34 0.25 0.33 0.35 0.34 0.29 0.30 0.27 0.26 0.26 0.23 0.24 0.24 0.26 0.32 0.32 0.35 0.38 0.34 0.37 0.29 0.25 0.23 0.24 0.22 0.21 0.24 0.29 0.31 0.30 0.25 0.22 0.22 0.23 0.24 0.23 0.21 0.18 0.16 0.16 0.18 0.24 0.29 0.32 0.34 0.36 0.34 0.29 0.29 0.35 0.37 0.39 0.34 0.47 0.55 0.58 0.60 0.65 0.68 0.70 0.71 0.75 0.79 0.82 0.85 0.86 0.87 0.91
0.46 0.44 0.41 0.48 0.37 0.40 0.43 0.41 0.44 0.52 0.56 0.60 0.63 0.62 0.56 0.44 0.33 0.26 0.20 0.25 0.36 0.32 0.36 0.35 0.32 0.32 0.28 0.27 0.25 0.27 0.25 0.24 0.24 0.26 0.26 0.33 0.32 0.34 0.32 0.30 0.35 0.28 0.24 0.22 0.21 0.21 0.23 0.26 0.27 0.28 0.32 0.31 0.27 0.22 0.23 0.24 0.23 0.20 0.16 0.14 0.14 0.18 0.25 0.25 0.25 0.30 0.27 0.24 0.30 0.36 0.36 0.38 0.29 0.36 0.54 0.61 0.66 0.67 0.66 0.67 0.70 0.72 0.75 0.79 0.84 0.88 0.89 0.91
0.45 0.41 0.39 0.40 0.40 0.46 0.33 0.30 0.42 0.49 0.53 0.59 0.62 0.48 0.44 0.28 0.30 0.22 0.21 0.38 0.25 0.31 0.32 0.32 0.36 0.29 0.29 0.30 0.28 0.28 0.26 0.25 0.25 0.25 0.24 0.26 0.27 0.27 0.26 0.22 0.25 0.20 0.19 0.18 0.17 0.21 0.20 0.21 0.25 0.28 0.30 0.30 0.28 0.23 0.21 0.22 0.21 0.20 0.17 0.14 0.11 0.10 0.16 0.16 0.19 0.17 0.19 0.20 0.29 0.36 0.36 0.34 0.30 0.33 0.46 0.59 0.63 0.66 0.70 0.73 0.74 0.74 0.75 0.79 0.84 0.88 0.91 0.91
0.44 0.40 0.37 0.37 0.40 0.37 0.37 0.41 0.48 0.51 0.55 0.58 0.53 0.47 0.33 0.25 0.18 0.24 0.27 0.32 0.29 0.33 0.32 0.36 0.32 0.31 0.29 0.26 0.25 0.28 0.29 0.24 0.26 0.25 0.27 0.27 0.26 0.26 0.28 0.26 0.26 0.21 0.14 0.18 0.17 0.18 0.18 0.21 0.24 0.24 0.27 0.28 0.27 0.22 0.19 0.17 0.19 0.18 0.16 0.14 0.10 0.08 0.10 0.10 0.13 0.16 0.18 0.22 0.29 0.33 0.38 0.30 0.35 0.39 0.45 0.47 0.55 0.61 0.69 0.74 0.76 0.77 0.79 0.81 0.84 0.89 0.93 0.95
0.45 0.39 0.34 0.33 0.37 0.39 0.45 0.51 0.52 0.54 0.50 0.53 0.44 0.32 0.30 0.21 0.20 0.31 0.28 0.32 0.34 0.37 0.36 0.34 0.34 0.33 0.31 0.26 0.26 0.27 0.25 0.28 0.26 0.24 0.25 0.25 0.25 0.23 0.25 0.27 0.26 0.24 0.20 0.19 0.16 0.16 0.14 0.15 0.18 0.21 0.20 0.26 0.25 0.23 0.22 0.18 0.18 0.17 0.17 0.15 0.11 0.10 0.09 0.08 0.11 0.12 0.14 0.19 0.25 0.33 0.31 0.29 0.30 0.31 0.44 0.50 0.57 0.61 0.65 0.71 0.77 0.79 0.81 0.85 0.89 0.91 0.93 0.95
0.45 0.37 0.36 0.36 0.40 0.53 0.54 0.54 0.55 0.53 0.52 0.45 0.33 0.26 0.19 0.18 0.24 0.24 0.27 0.31 0.35 0.40 0.35 0.38 0.33 0.32 0.30 0.30 0.30 0.30 0.27 0.27 0.30 0.26 0.24 0.23 0.22 0.22 0.22 0.23 0.26 0.25 0.23 0.18 0.18 0.18 0.15 0.14 0.18 0.21 0.21 0.25 0.23 0.25 0.26 0.23 0.20 0.19 0.19 0.18 0.14 0.11 0.14 0.11 0.14 0.14 0.16 0.19 0.21 0.26 0.27 0.32 0.30 0.37 0.43 0.49 0.54 0.55 0.58 0.63 0.70 0.74 0.80 0.85 0.89 0.91 0.93 0.94
0.42 0.32 0.34 0.34 0.40 0.53 0.57 0.55 0.55 0.56 0.48 0.37 0.25 0.20 0.18 0.21 0.21 0.29 0.27 0.34 0.35 0.33 0.36 0.36 0.34 0.30 0.29 0.29 0.32 0.31 0.33 0.28 0.29 0.29 0.25 0.24 0.24 0.22 0.24 0.25 0.25 0.26 0.23 0.19 0.20 0.16 0.18 0.15 0.19 0.22 0.24 0.24 0.24 0.27 0.26 0.25 0.15 0.17 0.18 0.14 0.15 0.16 0.13 0.12 0.14 0.17 0.20 0.19 0.16 0.24 0.25 0.29 0.33 0.38 0.42 0.43 0.45 0.47 0.52 0.58 0.63 0.68 0.74 0.80 0.85 0.89 0.93 0.97
0.37 0.36 0.24 0.32 0.44 0.55 0.55 0.51 0.57 0.52 0.46 0.34 0.23 0.16 0.22 0.25 0.30 0.31 0.36 0.35 0.36 0.36 0.32 0.30 0.32 0.29 0.28 0.27 0.28 0.29 0.31 0.32 0.31 0.29 0.25 0.28 0.24 0.24 0.23 0.24 0.27 0.27 0.26 0.24 0.21 0.23 0.17 0.15 0.20 0.19 0.19 0.24 0.27 0.27 0.27 0.27 0.25 0.20 0.15 0.16 0.19 0.19 0.16 0.12 0.11 0.13 0.13 0.12 0.14 0.18 0.18 0.22 0.24 0.22 0.38 0.42 0.42 0.43 0.49 0.54 0.59 0.64 0.68 0.75 0.82 0.87 0.91 0.96
0.39 0.33 0.29 0.30 0.45 0.56 0.51 0.52 0.53 0.52 0.41 0.30 0.21 0.22 0.32 0.26 0.35 0.33 0.37 0.36 0.37 0.37 0.33 0.30 0.32 0.36 0.29 0.28 0.27 0.29 0.30 0.27 0.29 0.31 0.28 0.30 0.25 0.31 0.26 0.25 0.27 0.27 0.28 0.29 0.24 0.24 0.24 0.17 0.20 0.21 0.19 0.22 0.28 0.28 0.26 0.28 0.28 0.22 0.19 0.21 0.16 0.13 0.12 0.13 0.13 0.10 0.11 0.11 0.12 0.16 0.17 0.20 0.22 0.23 0.30 0.32 0.34 0.40 0.48 0.53 0.57 0.61 0.66 0.70 0.78 0.85 0.91 0.97
0.41 0.33 0.18 0.36 0.47 0.49 0.49 0.53 0.48 0.46 0.36 0.25 0.22 0.22 0.29 0.30 0.34 0.32 0.34 0.38 0.40 0.37 0.31 0.33 0.30 0.34 0.33 0.30 0.30 0.31 0.30 0.26 0.28 0.27 0.27 0.30 0.27 0.31 0.29 0.28 0.26 0.28 0.29 0.30 0.26 0.26 0.27 0.19 0.18 0.23 0.22 0.22 0.25 0.27 0.20 0.22 0.27 0.27 0.25 0.20 0.20 0.17 0.14 0.12 0.11 0.14 0.12 0.11 0.11 0.12 0.17 0.15 0.21 0.23 0.30 0.32 0.38 0.40 0.45 0.51 0.54 0.57 0.60 0.66 0.72 0.78 0.86 0.94
0.35 0.26 0.16 0.28 0.37 0.43 0.51 0.52 0.43 0.42 0.34 0.22 0.24 0.26 0.35 0.32 0.37 0.40 0.39 0.38 0.34 0.34 0.33 0.33 0.36 0.33 0.37 0.36 0.36 0.32 0.33 0.30 0.29 0.29 0.27 0.26 0.28 0.34 0.32 0.33 0.30 0.30 0.31 0.32 0.29 0.30 0.24 0.27 0.18 0.21 0.24 0.24 0.19 0.24 0.21 0.21 0.21 0.23 0.22 0.19 0.18 0.17 0.19 0.16 0.15 0.12 0.12 0.12 0.12 0.11 0.12 0.14 0.20 0.27 0.29 0.34 0.40 0.44 0.46 0.48 0.52 0.55 0.59 0.65 0.68 0.70 0.76 0.86
0.41 0.30 0.18 0.34 0.35 0.43 0.48 0.46 0.37 0.35 0.33 0.35 0.37 0.35 0.38 0.35 0.37 0.36 0.38 0.39 0.36 0.40 0.36 0.36 0.36 0.34 0.36 0.36 0.36 0.39 0.35 0.33 0.32 0.29 0.27 0.27 0.27 0.25 0.35 0.35 0.36 0.33 0.33 0.32 0.30 0.30 0.27 0.26 0.21 0.21 0.20 0.20 0.21 0.25 0.26 0.24 0.24 0.22 0.21 0.19 0.19 0.15 0.13 0.12 0.11 0.15 0.14 0.13 0.13 0.13 0.11 0.15 0.21 0.25 0.27 0.30 0.36 0.41 0.46 0.48 0.52 0.56 0.59 0.62 0.66 0.69 0.73 0.79
0.33 0.19 0.16 0.29 0.39 0.45 0.36 0.29 0.36 0.39 0.35 0.32 0.34 0.39 0.34 0.40 0.35 0.35 0.36 0.35 0.34 0.31 0.37 0.35 0.37 0.35 0.35 0.36 0.38 0.39 0.36 0.33 0.32 0.31 0.30 0.27 0.29 0.28 0.31 0.43 0.43 0.41 0.35 0.30 0.29 0.33 0.33 0.30 0.27 0.22 0.21 0.19 0.23 0.26 0.29 0.29 0.28 0.25 0.24 0.21 0.22 0.20 0.16 0.12 0.10 0.12 0.14 0.14 0.16 0.16 0.13 0.13 0.23 0.27 0.25 0.30 0.35 0.39 0.41 0.45 0.51 0.56 0.57 0.62 0.67 0.70 0.74 0.77
0.33 0.25 0.29 0.39 0.46 0.43 0.30 0.21 0.29 0.35 0.33 0.36 0.41 0.38 0.39 0.36 0.35 0.37 0.36 0.35 0.30 0.32 0.30 0.31 0.32 0.34 0.37 0.38 0.38 0.40 0.42 0.35 0.33 0.30 0.31 0.32 0.31 0.33 0.41 0.39 0.40 0.38 0.40 0.35 0.35 0.36 0.39 0.32 0.27 0.26 0.27 0.25 0.24 0.27 0.29 0.31 0.30 0.28 0.27 0.27 0.24 0.18 0.17 0.15 0.13 0.15 0.13 0.14 0.13 0.13 0.12 0.12 0.21 0.26 0.28 0.31 0.37 0.41 0.42 0.44 0.45 0.47 0.52 0.61 0.67 0.71 0.74 0.75
0.36 0.31 0.25 0.40 0.46 0.46 0.30 0.18 0.19 0.25 0.31 0.37 0.39 0.38 0.41 0.39 0.37 0.32 0.32 0.35 0.34 0.32 0.32 0.34 0.36 0.40 0.38 0.44 0.42 0.40 0.47 0.34 0.39 0.38 0.34 0.37 0.34 0.44 0.40 0.39 0.40 0.38 0.41 0.50 0.43 0.39 0.33 0.32 0.29 0.25 0.24 0.23 0.21 0.22 0.25 0.29 0.29 0.27 0.26 0.26 0.26 0.24 0.20 0.18 0.17 0.19 0.13 0.13 0.14 0.13 0.09 0.12 0.19 0.22 0.24 0.28 0.34 0.37 0.43 0.52 0.54 0.53 0.57 0.60 0.65 0.71 0.73 0.73
0.40 0.37 0.33 0.35 0.43 0.44 0.29 0.37 0.29 0.28 0.29 0.32 0.36 0.33 0.35 0.35 0.37 0.36 0.35 0.34 0.39 0.37 0.36 0.34 0.37 0.39 0.39 0.43 0.41 0.44 0.46 0.44 0.39 0.44 0.42 0.40 0.38 0.45 0.43 0.41 0.43 0.39 0.52 0.54 0.52 0.47 0.36 0.31 0.29 0.23 0.19 0.17 0.15 0.13 0.16 0.20 0.22 0.25 0.26 0.26 0.27 0.25 0.24 0.19 0.15 0.15 0.13 0.13 0.15 0.14 0.12 0.16 0.20 0.21 0.20 0.20 0.29 0.37 0.42 0.45 0.56 0.59 0.59 0.62 0.65 0.69 0.72 0.73
0.37 0.24 0.27 0.31 0.37 0.37 0.38 0.43 0.39 0.34 0.29 0.29 0.28 0.31 0.34 0.31 0.33 0.35 0.34 0.31 0.36 0.39 0.39 0.39 0.39 0.40 0.37 0.37 0.37 0.39 0.41 0.46 0.42 0.41 0.41 0.39 0.40 0.42 0.44 0.45 0.44 0.44 0.47 0.49 0.52 0.46 0.36 0.34 0.31 0.27 0.24 0.20 0.20 0.20 0.23 0.25 0.24 0.21 0.23 0.25 0.25 0.27 0.26 0.25 0.20 0.15 0.13 0.14 0.14 0.14 0.15 0.18 0.18 0.20 0.19 0.18 0.22 0.28 0.32 0.37 0.42 0.54 0.57 0.62 0.65 0.69 0.72 0.75
0.46 0.32 0.30 0.23 0.32 0.34 0.33 0.39 0.36 0.37 0.30 0.36 0.26 0.30 0.28 0.30 0.31 0.28 0.33 0.26 0.32 0.33 0.35 0.35 0.35 0.33 0.33 0.33 0.35 0.37 0.42 0.41 0.44 0.44 0.42 0.40 0.42 0.44 0.46 0.47 0.45 0.48 0.47 0.44 0.48 0.45 0.39 0.33 0.33 0.29 0.27 0.27 0.27 0.26 0.23 0.25 0.23 0.23 0.23 0.23 0.25 0.26 0.28 0.24 0.21 0.16 0.18 0.16 0.12 0.14 0.17 0.16 0.18 0.23 0.23 0.21 0.19 0.26 0.31 0.34 0.36 0.48 0.60 0.61 0.63 0.68 0.76 0.76
0.33 0.37 0.40 0.40 0.31 0.26 0.28 0.29 0.37 0.35 0.36 0.37 0.31 0.34 0.29 0.28 0.28 0.26 0.30 0.32 0.35 0.36 0.30 0.30 0.32 0.33 0.35 0.33 0.35 0.31 0.38 0.38 0.39 0.37 0.42 0.43 0.41 0.42 0.41 0.45 0.43 0.47 0.45 0.42 0.50 0.46 0.40 0.33 0.34 0.35 0.29 0.29 0.29 0.29 0.28 0.24 0.25 0.25 0.25 0.25 0.24 0.25 0.26 0.25 0.22 0.23 0.21 0.16 0.12 0.14 0.17 0.15 0.16 0.19 0.24 0.25 0.27 0.29 0.33 0.38 0.41 0.44 0.53 0.60 0.61 0.65 0.74 0.79
0.45 0.44 0.42 0.48 0.34 0.37 0.38 0.38 0.39 0.38 0.34 0.36 0.34 0.33 0.29 0.29 0.29 0.32 0.32 0.30 0.32 0.31 0.33 0.26 0.28 0.32 0.33 0.34 0.34 0.31 0.34 0.33 0.34 0.41 0.40 0.40 0.41 0.40 0.38 0.39 0.45 0.47 0.45 0.43 0.43 0.49 0.41 0.36 0.39 0.40 0.36 0.30 0.29 0.29 0.30 0.28 0.25 0.25 0.26 0.26 0.26 0.25 0.25 0.26 0.25 0.25 0.23 0.19 0.17 0.17 0.16 0.16 0.17 0.18 0.21 0.26 0.34 0.37 0.36 0.38 0.41 0.47 0.52 0.58 0.63 0.65 0.70 0.76
0.40 0.40 0.38 0.46 0.43 0.39 0.39 0.39 0.38 0.36 0.31 0.34 0.31 0.31 0.33 0.33 0.31 0.34 0.36 0.32 0.27 0.30 0.37 0.31 0.30 0.35 0.37 0.35 0.35 0.31 0.33 0.37 0.38 0.36 0.41 0.42 0.41 0.44 0.41 0.43 0.40 0.44 0.47 0.43 0.44 0.48 0.42 0.36 0.43 0.42 0.36 0.31 0.28 0.29 0.30 0.29 0.28 0.26 0.25 0.28 0.27 0.26 0.26 0.26 0.26 0.27 0.26 0.23 0.21 0.19 0.17 0.16 0.19 0.21 0.22 0.27 0.32 0.36 0.40 0.43 0.43 0.45 0.49 0.53 0.57 0.59 0.61 0.65
0.53 0.57 0.53 0.42 0.34 0.36 0.39 0.37 0.35 0.33 0.30 0.31 0.30 0.33 0.35 0.35 0.32 0.36 0.34 0.38 0.34 0.30 0.35 0.34 0.37 0.36 0.36 0.37 0.37 0.35 0.37 0.39 0.42 0.45 0.47 0.45 0.39 0.45 0.42 0.43 0.48 0.41 0.44 0.44 0.44 0.44 0.45 0.39 0.45 0.44 0.36 0.30 0.31 0.28 0.28 0.29 0.29 0.28 0.27 0.26 0.28 0.26 0.24 0.25 0.24 0.25 0.26 0.23 0.22 0.21 0.18 0.16 0.19 0.21 0.21 0.22 0.25 0.26 0.26 0.33 0.38 0.46 0.57 0.63 0.59 0.58 0.59 0.64
0.59 0.62 0.60 0.49 0.34 0.39 0.35 0.36 0.36 0.33 0.27 0.33 0.35 0.34 0.33 0.33 0.36 0.37 0.30 0.35 0.38 0.40 0.38 0.38 0.38 0.37 0.35 0.32 0.31 0.36 0.42 0.41 0.41 0.47 0.51 0.52 0.52 0.52 0.51 0.50 0.51 0.46 0.45 0.45 0.48 0.43 0.45 0.41 0.39 0.41 0.36 0.32 0.34 0.31 0.29 0.29 0.29 0.27 0.25 0.25 0.28 0.31 0.29 0.29 0.28 0.28 0.27 0.27 0.25 0.21 0.19 0.21 0.21 0.21 0.19 0.20 0.22 0.24 0.26 0.29 0.33 0.40 0.54 0.63 0.64 0.67 0.68 0.68
Wind_Speed
14 15 15 15 15 15 15 15 16 16 16 16 16 16 16 15 16 16 16 15 15 15 15 14 14 13 13 12 12 13 13 12 12 11 11 12 12 12 14 15 14 15 15 14 13 13 14 13 13 13 11 9 9 8 8 9 8 6 4 4 4 2 2 3 3 2 2 2 4 5 6 4 3 4 5 6 7 8 8 6 7 7 7 10 11 14 16 16
15 15 15 15 15 16 16 16 16 16 16 16 16 16 16 16 16 16 16 16 15 15 15 15 14 13 13 12 12 12 12 12 12 12 12 12 12 13 15 16 15 15 16 16 15 15 14 14 14 13 11 10 9 9 8 8 8 6 4 4 4 4 3 3 4 4 4 3 4 5 6 5 4 6 6 5 6 7 7 6 7 8 9 10 13 15 15 16
15 15 15 15 16 16 16 16 16 16 16 16 16 16 16 16 16 16 16 15 15 15 15 15 14 14 13 12 12 11 11 11 11 11 10 9 11 13 14 15 15 15 16 16 16 16 15 14 15 14 12 10 10 10 9 8 8 7 5 4 4 4 4 3 3 4 5 5 5 5 6 5 5 6 5 5 6 7 6 7 8 9 11 12 14 15 15 16
15 15 16 16 16 16 16 16 16 16 16 16 16 16 16 16 16 16 16 16 15 15 15 15 14 14 13 12 12 10 10 10 9 9 7 6 8 12 14 15 15 15 15 16 16 16 15 14 14 14 12 10 10 11 10 9 8 7 6 6 4 4 4 4 4 4 5 8 6 5 6 5 6 5 5 7 7 5 5 7 10 11 13 14 14 14 15 16
16 16 16 16 16 17 17 17 17 17 17 17 17 17 17 17 16 16 16 16 15 15 15 14 14 14 13 12 11 9 8 7 7 7 6 4 6 10 14 15 15 15 15 16 16 16 16 15 15 14 12 10 10 10 11 11 9 7 8 7 5 4 4 5 6 5 5 9 7 5 5 5 6 5 6 9 7 5 6 8 10 13 14 14 15 15 15 15
16 16 16 16 17 17 17 17 17 17 17 17 17 17 17 17 17 17 16 16 16 15 14 14 14 13 13 12 10 8 7 7 7 7 5 4 6 9 12 15 15 15 16 17 17 16 16 16 15 14 13 11 11 11 11 12 11 8 7 7 7 6 5 5 5 4 5 8 6 5 6 6 5 4 7 9 7 6 8 9 10 13 14 14 15 15 15 15
17 17 17 17 17 18 18 18 18 18 18 18 18 18 18 17 17 17 17 16 16 15 15 14 13 12 12 11 9 8 8 9 10 9 8 6 7 9 11 13 14 15 16 17 17 17 17 17 16 15 13 11 11 12 12 12 13 11 8 7 7 7 6 7 6 5 6 7 7 6 5 5 5 4 6 7 6 7 9 10 11 11 12 13 14 15 15 15
18 17 17 18 18 18 18 18 18 18 19 18 18 18 18 18 18 17 17 17 16 16 15 14 13 12 11 9 8 8 9 10 10 9 10 10 9 10 11 13 14 16 17 18 18 18 18 18 18 16 14 13 12 12 13 12 12 12 10 8 8 8 8 10 9 6 7 7 7 7 5 6 6 5 6 7 7 8 10 10 11 11 11 12 14 15 15 16
18 18 18 19 19 19 19 19 19 19 19 19 19 19 18 18 18 18 17 17 16 16 15 14 13 12 10 8 8 8 8 9 8 8 10 12 12 12 13 14 15 17 17 18 19 19 19 19 19 17 14 14 14 13 13 13 12 12 12 11 10 10 10 11 10 8 7 7 8 7 6 7 7 4 4 8 9 10 11 10 11 11 10 11 13 15 15 16
19 19 19 20 20 20 20 20 20 20 20 20 19 19 19 18 18 18 17 17 16 16 15 14 13 11 10 9 7 6 7 7 6 7 9 12 13 13 14 14 16 17 17 18 19 19 20 19 19 17 15 14 14 14 15 14 12 13 15 14 13 13 12 12 11 10 7 7 9 8 7 8 6 3 3 7 11 11 11 10 10 11 10 11 13 14 15 16
20 20 20 20 20 20 20 20 20 20 20 20 20 20 19 18 18 18 17 17 16 16 15 14 13 11 11 10 8 8 8 6 4 5 7 10 12 14 15 14 16 18 18 18 19 20 20 20 19 16 15 14 14 15 15 14 13 14 15 16 16 15 15 14 13 12 9 8 10 7 6 7 5 4 5 8 11 12 12 11 10 10 10 11 13 14 14 15
20 20 21 21 21 21 21 21 21 21 21 20 20 20 19 18 18 17 17 16 16 15 14 13 12 11 11 11 12 11 8 6 5 5 7 9 11 13 14 14 14 17 18 17 18 20 20 21 20 18 16 14 14 14 13 13 13 14 15 15 16 16 16 16 16 14 10 10 10 6 5 7 6 7 9 10 12 13 12 11 10 10 9 10 12 13 14 15
21 21 21 21 22 21 21 21 21 21 21 21 20 20 19 19 18 17 17 16 15 14 13 12 11 11 11 11 13 13 11 11 11 10 10 9 11 12 13 13 13 15 17 18 18 19 20 21 21 20 18 15 15 14 12 12 12 12 13 13 13 13 14 16 17 16 12 11 12 7 7 9 8 9 11 12 12 12 11 10 10 9 8 10 12 13 14 15
21 22 22 22 22 22 22 22 21 21 21 22 21 20 20 19 18 18 17 16 14 13 12 11 10 10 11 11 12 13 14 15 14 14 12 11 12 12 13 14 13 14 17 18 17 18 20 21 21 20 19 18 17 15 13 13 13 12 12 12 11 12 12 14 17 16 13 13 13 8 8 10 9 11 12 12 13 12 11 11 11 9 8 10 12 14 14 15
22 22 22 22 22 22 22 22 22 22 22 22 22 21 20 20 19 18 17 16 14 12 11 10 10 9 10 11 12 12 13 14 14 15 14 13 13 13 13 14 14 14 17 18 17 17 19 20 20 19 19 19 18 16 14 13 13 12 11 11 11 11 11 12 16 16 14 14 13 9 8 10 10 12 12 12 13 12 11 12 12 11 9 10 12 14 15 15
23 23 23 23 23 23 22 22 22 22 23 23 23 22 21 20 19 17 16 14 13 12 11 10 10 9 9 10 11 11 11 12 13 14 14 14 14 14 14 14 14 14 16 19 18 18 19 19 20 20 19 19 18 17 14 14 14 12 12 12 11 11 10 10 13 15 15 14 14 11 9 9 10 13 13 13 13 13 12 12 12 12 10 10 12 14 15 16
23 24 24 23 23 23 23 23 23 23 23 23 23 22 21 19 16 15 13 12 11 11 11 10 9 10 11 11 11 11 10 11 11 11 13 15 15 15 14 14 14 13 14 17 18 18 19 19 19 19 19 19 18 17 15 15 16 14 13 12 12 12 11 10 12 14 15 15 15 12 10 11 11 13 14 14 14 13 12 12 13 12 11 10 12 14 16 17
24 24 24 24 24 24 24 23 23 23 24 23 22 22 20 17 15 13 11 11 11 11 12 11 9 10 11 11 11 11 10 9 10 10 12 14 16 16 14 13 13 13 12 14 17 18 19 19 18 18 18 19 19 18 17 16 16 15 13 12 12 12 12 12 12 12 14 16 16 13 12 12 12 14 14 15 15 14 13 13 13 13 12 11 12 15 16 17
25 25 25 25 25 25 24 24 23 24 24 23 21 20 17 16 15 14 13 14 14 13 13 12 11 11 11 11 12 11 11 11 11 12 13 13 14 16 15 14 14 14 13 12 15 17 17 17 18 19 19 20 20 20 19 17 16 16 14 12 12 13 13 13 12 11 13 16 17 16 14 13 14 15 15 16 15 14 13 13 13 13 12 11 12 14 16 18
26 26 26 26 26 26 25 25 24 24 23 20 19 17 15 16 16 16 17 18 19 19 19 17 16 16 16 16 15 12 12 13 12 12 13 13 14 15 16 15 14 14 13 12 13 15 16 17 19 20 20 20 20 20 20 19 18 18 16 14 14 14 14 13 11 10 12 16 18 17 15 15 15 15 15 16 16 14 14 14 14 14 13 12 12 14 16 18
27 27 27 27 27 26 26 26 25 25 22 20 19 17 16 17 18 19 21 21 21 21 22 22 20 21 20 20 18 14 12 12 12 12 13 14 14 14 15 16 14 14 14 13 13 14 15 18 20 20 20 20 20 20 20 20 20 19 18 17 15 15 15 15 11 10 12 17 18 18 17 16 16 16 16 17 16 14 15 15 15 15 14 13 13 15 17 17
28 27 28 28 27 28 27 26 26 24 21 19 19 17 17 19 19 21 22 20 21 21 23 24 23 23 22 22 23 19 14 14 15 14 13 15 16 14 14 15 15 14 13 13 14 14 16 18 19 19 19 20 20 20 20 21 22 21 19 17 16 16 15 15 14 11 12 16 18 19 19 17 17 17 17 17 16 15 16 17 16 17 16 14 14 15 17 17
29 28 28 28 28 29 28 28 27 24 21 21 20 18 19 20 21 22 21 20 21 21 23 24 25 25 23 23 23 21 18 17 17 16 15 16 17 16 15 15 15 14 14 15 16 16 16 16 17 18 18 20 21 21 20 20 22 22 21 18 17 17 15 14 13 11 11 15 18 20 19 17 16 17 17 17 16 15 16 18 18 18 17 16 16 16 17 17
29 29 29 29 29 29 30 30 26 22 23 23 21 20 21 22 21 22 21 20 20 19 21 24 24 24 24 22 21 21 20 18 18 18 17 17 17 16 15 15 15 14 15 17 18 18 17 14 15 18 19 20 21 21 21 20 21 22 23 21 19 19 17 15 13 10 11 13 17 19 17 16 17 17 18 18 16 16 17 18 18 18 18 17 17 17 18 18
31 31 30 30 29 29 31 28 23 23 25 23 20 21 22 22 22 22 21 20 20 18 19 21 21 22 23 21 20 20 20 20 20 20 19 18 18 16 15 16 16 16 16 17 18 18 18 16 16 17 18 20 21 21 22 21 20 22 24 25 23 22 19 17 15 11 10 11 15 19 16 15 18 19 19 18 16 16 17 17 18 18 18 17 17 17 19 19
32 32 31 31 30 30 29 25 23 25 26 22 21 23 23 23 22 22 20 19 20 17 16 17 17 18 19 21 20 17 17 19 22 23 21 20 20 17 15 15 15 16 16 16 16 16 17 17 17 18 18 20 21 21 22 22 21 22 22 24 25 25 22 21 18 14 12 11 13 19 18 15 18 20 20 19 18 18 18 18 18 18 18 18 18 18 19 19
33 33 32 31 31 29 26 25 26 27 24 23 24 24 24 24 23 22 19 18 18 16 14 15 15 15 16 19 20 18 15 15 18 24 24 22 21 19 17 16 15 16 15 14 16 15 15 18 19 19 19 19 21 21 21 22 22 21 20 21 24 25 25 23 21 19 16 13 13 18 20 16 18 21 20 20 19 19 19 19 17 18 19 20 20 19 20 20
33 34 33 32 32 30 26 26 28 26 24 25 26 25 25 24 23 20 17 18 17 13 13 14 14 14 14 17 21 20 17 14 14 21 26 24 22 20 19 19 16 16 16 17 17 15 14 18 19 20 20 19 20 19 19 21 22 20 19 20 22 23 24 24 22 21 19 17 17 18 18 17 17 20 21 20 21 21 21 20 19 19 20 21 21 21 21 21
34 34 34 33 33 30 27 26 28 27 26 26 26 25 24 23 22 18 17 19 17 15 15 14 14 14 14 16 20 20 18 16 14 18 24 25 24 22 20 20 18 17 18 19 19 16 14 17 18 19 20 19 19 19 19 20 20 19 19 20 21 21 22 22 22 23 21 20 21 20 19 18 17 19 22 21 21 21 20 20 19 19 21 22 22 22 22 22
35 35 35 34 32 30 28 28 28 27 26 26 26 26 24 22 20 18 20 21 17 16 16 15 15 16 15 16 19 21 20 19 16 16 22 24 24 23 21 20 19 18 19 20 20 19 17 17 17 18 19 19 18 19 20 20 19 17 18 20 21 21 22 21 21 22 22 22 23 23 22 20 18 19 23 23 22 21 20 19 19 19 21 22 23 23 24 23
36 36 36 34 32 30 29 28 27 26 27 27 26 25 23 21 20 20 22 21 18 19 17 15 16 17 18 18 19 21 21 20 18 17 20 23 23 24 21 21 21 20 20 21 21 20 20 19 18 18 18 19 18 19 20 21 20 18 18 19 20 20 21 21 21 21 22 23 23 24 23 23 21 20 22 24 23 22 21 19 20 20 21 23 23 24 25 25
37 37 37 36 34 32 30 30 30 29 28 27 26 24 22 22 23 24 23 19 17 18 17 16 16 17 20 21 20 21 22 22 21 19 21 23 24 25 24 23 22 21 22 23 21 20 21 22 20 19 19 19 19 19 19 20 21 20 19 19 20 18 19 21 21 20 22 22 22 23 22 24 25 22 22 25 24 22 21 20 20 20 21 22 23 24 25 25
39 39 38 36 35 33 32 32 32 31 28 25 25 24 22 23 25 26 25 21 18 16 15 17 18 18 20 22 21 22 22 23 23 22 21 24 26 27 27 25 24 23 21 21 21 20 20 21 22 22 21 20 20 20 20 20 21 22 22 21 20 18 18 20 19 18 20 20 21 23 22 22 24 23 23 24 24 23 23 23 22 21 21 23 24 24 25 26
40 39 38 36 35 34 32 32 31 30 28 26 24 24 25 26 25 24 25 26 24 20 18 20 22 22 22 22 22 22 22 23 23 23 23 24 27 28 29 28 27 25 20 19 21 22 21 20 22 24 22 21 22 22 20 19 21 23 22 22 22 21 19 18 17 18 18 18 19 21 22 22 22 23 23 23 23 23 24 24 24 23 22 23 23 24 24 26
41 39 38 36 34 32 31 31 30 30 28 27 25 26 29 29 25 24 23 24 24 25 25 25 24 25 24 23 23 23 24 24 23 24 25 25 27 29 29 29 29 26 23 21 21 22 24 23 21 23 22 22 23 22 20 19 21 23 22 23 24 23 20 17 17 19 18 17 19 20 22 23 22 22 22 23 24 24 23 24 24 23 23 23 23 24 24 25
40 38 36 35 33 32 32 31 30 30 29 27 27 30 32 30 27 25 24 23 23 25 27 25 23 23 24 23 23 22 24 25 24 25 26 27 29 29 29 29 29 29 27 24 22 21 23 23 21 22 23 24 25 22 22 22 21 21 24 26 24 22 23 22 19 19 18 18 20 21 22 23 22 23 22 22 24 24 23 23 24 24 24 23 22 23 24 24
39 37 36 35 34 33 33 32 31 31 30 29 31 33 32 31 30 28 27 26 26 25 25 25 23 23 23 23 22 20 21 25 26 27 27 27 29 31 31 29 29 31 30 26 24 22 21 22 22 23 25 26 26 24 24 25 23 21 24 25 22 19 22 23 19 18 19 19 19 20 23 22 22 23 22 22 23 23 23 22 23 23 23 23 22 23 24 24
39 38 36 34 32 33 34 34 32 32 31 31 34 34 33 33 32 31 30 29 28 27 26 26 26 25 24 24 24 22 21 22 24 26 28 28 28 30 31 30 30 31 30 28 27 24 23 23 22 24 25 24 24 25 26 26 26 24 23 22 21 20 21 22 20 19 20 19 18 19 22 22 22 22 21 22 23 23 23 22 23 23 23 22 23 23 23 24
38 36 34 32 32 34 36 34 33 33 33 33 35 35 33 34 34 34 34 33 32 31 29 28 27 27 27 26 26 26 25 24 25 25 26 28 29 29 30 29 29 31 31 30 29 26 24 24 23 23 23 23 23 27 28 28 27 25 23 23 23 22 23 23 22 19 19 19 18 17 18 20 22 22 21 22 23 23 22 22 23 23 23 23 23 22 22 23
36 34 33 32 33 36 36 34 33 33 34 34 34 34 34 34 33 34 35 34 33 33 31 30 29 30 30 30 30 29 28 27 27 27 27 27 27 28 29 29 29 30 31 32 31 29 26 26 26 24 23 24 26 28 29 29 27 27 27 27 25 23 22 23 24 22 20 18 17 17 17 19 21 21 21 22 22 22 22 22 23 23 24 25 24 23 23 23
35 33 32 33 34 36 34 32 32 33 34 35 34 34 34 34 33 34 35 35 35 34 34 34 33 33 33 33 33 32 31 30 29 29 29 28 26 25 23 24 26 28 30 32 32 31 29 29 28 26 26 28 28 26 28 30 29 28 29 29 28 25 21 21 23 23 23 21 19 18 19 20 21 20 21 22 22 22 23 22 22 23 25 26 25 25 24 23
35 34 34 35 36 35 32 32 33 33 34 34 34 34 34 33 33 33 33 34 34 34 35 35 35 35 34 33 33 33 33 33 33 32 31 29 28 25 19 18 22 26 30 33 34 32 29 29 30 30 30 30 28 26 26 30 31 30 30 29 28 27 24 22 21 21 22 23 21 20 21 22 21 19 19 21 21 21 23 23 22 23 25 26 26 26 25 25
35 36 37 36 35 34 32 32 33 34 34 35 35 35 35 34 34 33 33 33 33 33 34 34 34 34 33 33 33 32 32 34 34 33 33 32 30 27 20 18 21 25 27 30 31 31 30 30 31 31 30 31 31 29 27 28 30 32 32 29 29 30 29 26 23 21 21 23 21 21 22 22 21 19 19 20 20 19 21 23 24 24 24 24 26 26 26 26
35 36 34 32 32 32 31 31 32 34 34 35 35 35 34 33 33 32 32 32 32 32 33 33 33 33 33 34 34 32 31 33 32 31 32 32 31 28 24 22 24 25 25 25 25 28 32 33 32 29 28 29 31 31 30 29 30 32 32 31 31 31 30 28 26 23 23 24 22 21 22 21 20 19 20 21 21 19 19 21 23 23 23 23 24 25 26 27
34 32 30 30 31 31 29 29 30 32 32 33 33 33 34 34 34 33 32 33 33 32 33 33 33 34 34 34 34 34 33 34 34 32 32 33 32 31 27 26 27 27 26 25 25 27 32 35 34 32 30 30 31 31 31 31 30 31 31 33 34 32 31 29 26 25 25 25 23 23 23 21 21 21 21 23 24 22 20 20 21 23 24 25 24 25 26 27
31 29 28 29 29 29 29 28 29 29 30 32 33 33 33 34 35 35 35 34 34 34 34 35 34 35 35 34 35 36 35 36 36 35 35 35 34 33 30 29 29 28 25 24 25 27 29 32 36 39 38 35 33 32 30 28 29 31 31 32 34 34 33 30 28 29 27 24 25 27 22 20 21 22 21 22 24 23 21 20 21 21 22 24 25 26 27 26
29 27 27 27 27 27 28 28 28 29 30 31 32 33 33 33 34 35 35 35 34 35 36 36 35 35 35 35 36 37 37 38 38 37 36 36 36 36 34 31 30 27 24 25 25 27 29 30 34 40 42 41 37 34 32 30 29 32 32 32 33 35 35 33 32 31 27 25 28 29 24 21 21 20 19 20 20 21 20 21 22 21 20 21 23 25 27 27
27 26 26 26 26 26 27 28 29 30 31 31 31 32 33 33 33 33 33 34 35 35 35 35 35 34 35 35 36 37 37 38 40 39 37 37 37 37 35 34 32 26 24 26 26 26 29 31 31 33 38 43 41 36 35 34 31 31 32 33 34 35 37 37 34 30 27 29 31 29 27 27 24 21 20 20 18 19 20 22 22 22 21 21 21 23 26 26
25 25 24 24 24 25 27 29 30 30 30 30 31 32 32 32 32 32 32 33 34 34 34 35 35 34 35 36 36 37 37 38 40 40 38 37 36 35 35 35 34 29 26 27 27 26 28 31 29 28 32 39 42 40 37 37 34 32 32 33 33 35 38 38 35 31 29 32 31 28 28 29 26 24 22 20 19 19 20 21 21 22 23 22 22 23 25 26
21 21 21 22 22 23 25 26 26 27 28 28 29 30 31 31 32 32 32 32 33 34 34 34 35 35 36 37 37 38 38 38 41 41 39 38 37 35 35 35 34 32 29 28 28 27 27 29 29 27 28 34 40 42 40 38 37 35 33 33 33 35 36 36 35 32 30 31 29 28 30 30 27 25 23 22 21 19 18 18 20 22 23 23 24 24 25 27
18 18 19 19 19 19 20 21 22 23 24 25 25 27 28 29 30 31 32 33 33 33 33 33 35 36 37 38 38 40 40 40 41 42 41 41 40 38 37 36 35 34 32 29 29 28 28 29 28 26 27 30 35 40 42 40 38 36 36 35 34 34 35 35 34 32 30 29 27 28 30 30 27 26 26 25 24 23 21 20 19 20 20 21 23 23 24 25
16 16 16 16 16 16 17 17 18 19 20 20 21 23 25 26 27 29 29 30 31 32 32 33 34 35 36 38 38 39 39 40 42 43 43 43 44 42 42 41 38 36 34 31 30 29 28 29 28 25 26 29 31 35 40 39 36 37 40 38 33 32 33 33 33 32 30 27 26 28 29 28 26 26 28 28 26 25 25 23 21 21 20 21 22 22 22 23
Wind_Direction
317 316 316 316 316 315 314 314 313 312 312 312 312 312 311 311 310 310 309 309 309 309 310 310 309 307 304 301 296 292 289 284 280 273 260 257 249 233 220 212 209 206 202 198 195 193 193 196 199 196 195 198 202 205 200 196 193 189 190 208 212 197 176 165 171 192 195 184 168 162 149 140 149 150 150 149 150 161 170 170 164 167 163 165 169 165 164 166
318 317 316 317 317 316 315 314 313 312 312 311 311 311 310 310 310 310 309 308 307 307 307 307 307 307 305 303 298 294 289 281 278 270 260 257 246 229 218 212 208 203 201 200 198 196 196 198 197 196 197 202 205 201 196 193 190 183 176 188 190 180 173 181 188 196 213 192 167 167 153 144 150 151 163 168 168 171 166 165 162 157 157 159 164 164 165 167
320 318 317 317 316 316 315 314 313 311 311 310 309 309 309 309 309 309 309 308 307 306 305 305 305 305 305 304 301 297 289 283 278 266 260 257 236 218 210 208 205 199 200 201 199 198 200 198 195 194 198 207 207 199 194 191 190 185 178 183 194 200 206 234 217 211 221 192 167 172 160 153 156 159 181 178 165 169 165 167 167 164 163 163 167 168 167 169
321 319 318 317 317 316 315 313 312 311 310 309 308 308 307 307 307 307 307 307 306 305 305 304 303 302 303 303 301 297 289 283 271 256 260 260 224 206 201 201 201 199 199 199 197 197 199 197 194 195 199 206 206 203 200 190 185 183 181 183 197 197 201 241 250 253 227 186 174 176 169 163 164 172 177 166 168 174 166 164 164 167 169 167 170 172 171 173
320 319 318 317 317 316 315 314 312 311 310 309 307 306 305 305 304 304 305 305 305 305 304 303 301 301 300 300 297 294 290 281 260 247 253 246 207 197 198 198 198 200 201 199 198 198 199 197 196 198 200 205 204 203 202 194 186 183 184 190 205 189 191 242 262 272 217 179 180 181 184 185 175 181 169 168 188 193 172 164 159 163 169 171 173 175 176 177
320 319 317 317 316 316 315 315 313 312 310 309 308 306 304 303 302 302 302 302 302 302 302 302 301 301 299 296 291 287 280 268 256 242 235 224 205 198 199 199 198 201 202 201 201 200 200 199 198 200 200 203 203 201 198 193 191 192 193 198 213 211 219 251 264 263 199 174 187 196 198 191 180 193 182 182 196 187 174 167 160 161 167 172 175 177 179 180
318 318 317 316 316 316 316 314 313 312 310 309 308 306 304 302 301 300 299 299 299 299 300 300 300 300 299 294 285 281 273 264 260 242 231 228 214 205 202 201 200 201 202 203 203 201 201 202 202 202 201 203 204 203 201 199 198 203 212 212 218 224 233 247 262 257 203 180 190 198 202 194 187 199 191 190 190 175 171 168 163 163 165 171 177 180 181 183
316 316 315 316 316 316 315 314 312 311 310 309 308 306 304 302 300 298 297 296 295 295 295 296 297 297 297 293 283 282 273 263 258 242 234 232 218 208 204 203 203 202 202 205 205 203 204 205 207 205 204 207 205 203 205 209 209 212 221 223 227 236 239 247 259 252 212 195 197 200 207 202 192 189 187 181 175 170 166 166 164 164 169 174 178 181 181 183
315 314 314 314 314 314 313 313 312 310 310 309 307 306 304 302 300 298 296 295 293 292 291 291 291 291 290 287 284 284 273 261 257 245 232 228 222 214 210 209 208 205 206 208 208 206 206 207 209 209 211 213 211 211 211 213 216 219 228 234 237 242 245 250 254 238 211 199 198 202 216 211 190 164 177 176 169 170 169 169 168 169 176 180 180 182 182 184
314 313 313 313 312 312 311 311 310 309 309 307 306 304 303 301 300 298 296 294 291 289 287 285 284 283 280 278 275 271 270 267 264 249 228 221 220 217 214 214 212 209 210 212 210 210 209 209 210 213 219 219 217 219 218 217 225 229 233 239 241 244 246 247 247 235 218 204 198 202 221 217 193 164 190 184 172 170 172 172 172 173 180 184 183 183 184 185
313 313 312 311 311 310 310 309 309 309 308 306 305 303 302 301 299 298 296 293 290 288 285 281 279 275 272 272 261 255 265 263 255 250 230 218 215 215 215 216 215 213 213 214 213 212 212 211 210 211 216 218 219 224 225 228 238 242 239 241 243 245 244 240 240 236 230 223 205 198 218 215 201 198 193 182 175 172 173 173 173 176 184 185 184 185 187 188
312 312 311 311 310 309 309 308 308 308 307 305 304 302 301 300 299 298 295 293 289 286 282 277 274 270 271 270 255 251 256 247 245 258 246 225 216 217 218 216 216 215 214 215 216 215 213 212 210 212 215 218 220 222 230 236 242 248 244 246 246 243 242 237 234 230 228 225 207 190 218 222 216 200 180 175 175 171 172 176 177 181 187 187 186 187 189 190
312 311 311 310 309 308 307 307 307 307 305 304 302 301 300 297 297 296 294 292 288 284 280 274 271 269 271 267 254 251 252 252 258 261 251 235 224 223 221 218 216 215 214 215 217 216 214 214 212 215 221 224 223 224 236 242 244 246 242 247 249 244 242 234 227 225 223 215 203 199 228 230 220 195 177 174 175 173 176 184 186 188 191 190 189 190 191 191
312 311 311 310 309 307 306 306 305 305 304 302 301 299 297 295 293 292 290 287 284 281 277 272 270 269 270 265 259 258 256 256 259 255 246 235 229 229 224 220 219 217 216 216 217 216 214 214 215 218 223 225 228 233 241 241 239 242 242 247 245 242 244 230 218 218 219 212 203 210 233 229 216 196 186 181 180 180 186 192 194 194 194 193 192 192 193 193
312 312 311 310 309 307 305 304 304 303 302 301 300 298 295 293 291 288 285 281 278 275 271 270 268 271 276 269 265 265 256 252 254 249 242 233 229 230 225 221 220 219 219 218 218 216 212 212 215 220 224 225 228 232 235 236 234 234 241 249 242 239 242 227 213 211 212 213 208 215 232 225 212 201 195 190 188 186 190 196 198 197 194 193 193 192 193 193
312 312 311 310 308 307 305 304 303 302 301 300 299 297 293 292 289 285 282 277 273 268 265 268 264 266 276 272 269 267 253 245 249 245 237 229 224 225 225 223 222 220 219 219 219 217 214 214 218 222 224 224 224 225 230 236 234 228 230 241 242 236 237 227 216 211 206 209 215 221 229 223 211 204 201 196 193 192 193 197 199 200 195 193 194 193 193 194
311 311 310 310 308 307 304 303 302 301 300 299 298 295 293 291 287 283 279 274 271 265 261 265 262 265 269 269 271 267 252 244 245 242 234 228 221 222 226 223 223 222 218 218 219 219 217 218 221 223 222 221 219 219 227 231 229 228 227 234 238 231 231 229 222 218 208 208 219 225 226 221 207 202 203 202 198 195 196 199 201 202 198 195 195 193 194 196
309 309 309 308 307 306 304 303 302 301 300 298 296 293 289 287 284 280 274 272 273 266 263 263 259 266 266 262 264 260 253 248 245 241 234 228 222 221 223 222 220 221 220 219 219 219 219 220 220 223 222 220 218 216 223 226 223 225 226 232 237 228 227 226 222 220 213 213 218 219 221 217 206 203 206 206 203 201 202 201 201 202 200 196 195 193 194 197
307 308 308 306 305 305 303 302 301 301 299 296 295 290 282 283 282 273 270 272 272 266 264 258 248 257 266 262 261 259 257 255 252 246 234 225 222 219 220 222 219 218 220 220 219 217 217 221 222 224 223 220 219 218 221 225 222 225 229 233 234 231 231 226 220 218 213 215 216 215 217 215 208 207 208 208 206 207 206 203 202 202 201 198 196 196 196 198
306 306 306 305 304 303 302 301 300 299 297 293 295 290 283 287 282 272 274 273 268 264 263 258 250 254 265 266 262 261 263 256 250 245 233 222 217 216 219 221 217 218 222 220 219 217 215 222 224 223 222 221 221 221 221 224 225 229 234 235 233 236 236 224 220 225 217 215 216 215 215 214 213 213 210 207 208 212 211 207 204 202 202 201 198 197 197 199
304 304 304 304 302 301 300 299 298 297 292 289 292 288 283 287 281 277 281 275 265 261 260 259 254 253 258 261 257 258 264 257 248 243 234 220 212 214 219 217 216 221 223 217 217 218 217 224 225 221 221 221 223 224 222 224 227 230 233 236 237 237 232 224 228 243 228 218 219 217 214 215 217 217 213 208 212 218 214 210 207 203 203 204 200 198 199 199
304 303 303 303 302 301 298 298 297 292 287 286 289 285 282 286 284 283 284 276 267 260 258 258 255 253 255 256 254 250 252 253 250 247 233 217 212 216 218 216 218 222 221 217 219 221 224 229 227 222 222 222 225 226 225 226 227 228 230 234 238 232 229 231 234 240 232 221 218 216 216 220 220 218 215 213 218 223 215 210 209 204 204 206 204 201 200 200
303 303 303 302 302 300 297 297 293 285 283 286 284 281 283 287 287 288 284 277 272 263 256 254 252 250 250 252 250 242 240 244 244 242 232 217 213 216 216 216 218 219 219 219 220 223 228 233 227 222 223 224 226 227 226 227 227 228 227 229 233 229 228 232 229 230 234 229 221 217 219 225 222 219 219 217 219 223 217 211 209 206 205 207 207 202 200 200
302 301 301 301 301 300 297 295 287 279 284 285 278 276 283 286 287 290 284 274 271 264 257 254 250 247 245 246 244 235 235 239 237 236 232 219 212 215 219 219 219 221 223 221 221 226 232 233 224 221 223 223 226 227 226 227 228 229 227 226 228 227 226 229 230 241 250 241 225 216 220 226 220 216 220 222 221 223 219 212 210 210 209 209 208 203 201 201
301 300 300 300 300 300 298 291 280 281 285 279 273 277 283 284 285 289 284 274 271 265 262 258 250 248 244 240 239 234 234 239 237 234 231 223 215 216 223 222 222 225 224 222 224 230 235 231 222 223 225 223 225 227 225 225 229 231 229 226 226 227 231 233 237 250 257 249 226 211 216 229 223 218 221 223 223 224 221 215 212 213 213 212 210 206 204 203
300 299 299 299 298 300 297 285 279 285 283 273 273 280 282 282 284 286 281 275 272 266 262 259 251 247 240 235 233 230 236 243 238 232 231 228 220 218 224 224 226 228 224 225 231 236 235 228 224 225 225 224 226 228 225 223 228 232 228 225 227 229 234 235 237 242 246 250 233 215 218 231 227 225 224 221 222 223 221 218 216 215 215 214 211 209 206 204
299 298 298 297 297 298 291 281 282 284 277 272 276 279 278 279 281 281 275 273 272 262 256 256 251 245 239 231 222 222 238 244 234 229 229 229 221 217 223 225 226 228 224 226 233 235 228 224 226 226 226 227 226 227 226 221 227 232 223 222 228 230 232 233 235 239 239 247 245 224 222 230 228 227 227 222 221 221 220 220 220 220 219 215 213 211 208 205
298 297 297 296 296 294 285 279 280 278 272 274 277 277 276 276 276 273 267 267 267 259 253 251 248 246 240 226 216 224 240 235 229 231 226 224 223 219 224 228 226 227 223 225 231 232 225 222 224 225 227 230 227 227 225 221 228 231 222 222 227 228 230 232 235 240 238 240 244 233 227 234 235 228 226 225 220 218 218 220 223 223 220 217 214 213 210 208
297 296 295 295 294 290 283 276 275 273 272 274 276 274 273 272 269 264 259 260 262 261 255 248 246 244 235 223 220 230 240 235 240 235 221 221 225 223 228 228 227 230 229 229 234 235 231 227 224 224 228 231 229 228 225 223 229 228 222 226 228 227 229 230 233 238 238 235 235 233 227 234 243 230 222 223 221 219 221 223 225 224 219 217 217 215 212 210
295 294 293 293 291 288 283 277 271 271 273 274 273 272 270 266 259 255 254 255 259 260 254 248 246 238 229 229 232 235 239 240 244 232 220 223 225 225 230 229 230 236 236 237 238 238 237 234 228 227 230 229 227 227 226 225 228 227 223 227 231 231 230 232 235 235 238 239 234 231 226 228 241 234 221 221 222 223 226 228 228 226 221 219 218 217 215 213
294 293 292 291 288 285 281 276 272 272 273 273 272 269 264 258 252 249 252 256 260 256 252 251 248 237 230 234 237 236 237 241 241 229 224 226 224 225 227 228 231 236 238 240 241 239 238 236 234 232 230 227 225 228 228 226 226 226 224 223 228 232 232 236 237 232 236 241 236 233 228 226 235 236 227 226 228 227 228 228 227 227 225 223 221 219 217 216
293 292 291 288 285 281 275 273 274 274 272 270 267 262 255 251 250 247 251 259 260 253 248 249 249 244 241 241 240 236 235 237 237 231 227 227 228 227 227 227 228 230 235 237 236 237 236 235 235 234 230 225 224 228 229 227 225 225 223 219 221 225 228 232 234 232 236 242 238 232 231 232 236 238 231 229 232 232 232 231 229 228 227 225 222 220 219 218
292 291 289 286 283 279 274 273 273 271 268 264 260 256 250 249 250 248 248 251 252 250 248 250 253 252 246 244 242 236 235 237 236 233 232 230 231 230 231 231 228 230 236 235 233 235 239 239 234 233 232 226 223 225 226 225 223 223 221 217 217 219 223 229 232 235 240 245 241 232 232 237 239 239 234 231 233 234 233 232 230 229 227 225 223 222 221 220
292 290 287 285 282 278 276 274 269 265 263 259 255 252 247 248 252 251 248 248 250 252 255 259 260 255 247 244 241 236 235 238 236 232 233 233 232 231 231 231 229 232 236 236 234 233 236 240 233 230 230 225 224 225 224 223 222 223 222 220 222 221 223 230 230 231 237 243 241 233 232 235 236 239 236 231 233 233 232 232 231 230 229 227 226 224 223 221
291 288 285 283 279 277 278 274 266 260 258 257 253 248 245 247 252 253 251 250 251 253 257 261 258 253 249 245 242 237 234 237 236 233 234 234 233 233 231 230 228 229 233 235 237 234 235 240 236 232 231 226 226 225 221 222 224 225 222 223 227 224 225 235 235 232 236 241 240 233 233 237 240 244 239 231 232 233 234 233 232 232 230 229 229 226 225 223
289 287 283 279 276 276 279 275 265 256 255 255 251 248 247 248 250 251 252 253 253 256 260 258 253 251 250 245 244 243 238 237 235 234 236 236 236 234 233 233 229 228 230 233 237 235 234 240 237 233 234 229 227 225 220 220 224 225 222 224 228 224 225 234 240 240 238 242 242 236 239 244 245 247 242 234 234 234 234 234 231 230 228 226 229 228 228 225
289 286 281 276 273 274 277 276 265 255 253 253 250 250 250 250 251 252 253 254 255 257 259 255 249 249 248 244 243 245 245 241 235 234 236 237 238 235 233 235 231 229 230 232 238 238 236 243 239 231 235 233 227 227 226 223 221 222 224 224 225 226 227 230 237 240 238 243 247 240 240 243 241 243 243 237 236 235 232 231 230 228 226 225 228 229 229 227
287 285 280 273 271 273 277 274 263 253 253 253 251 252 252 252 253 254 255 255 254 255 255 251 246 245 245 245 244 246 250 246 238 237 238 237 239 235 232 235 233 230 230 230 237 239 237 245 244 233 234 233 227 226 229 227 223 223 227 225 222 224 226 226 230 236 236 242 248 244 242 241 239 240 240 235 234 234 231 229 228 227 226 227 228 228 228 227
286 283 277 270 270 276 277 271 260 252 252 252 252 253 253 252 253 253 254 255 253 253 253 249 245 244 244 246 248 249 250 248 243 242 240 238 240 236 231 233 234 231 229 229 234 238 236 241 244 237 233 231 227 225 226 226 225 224 226 226 224 226 228 228 230 234 235 240 245 246 245 243 241 238 236 234 232 229 229 229 229 229 227 227 227 227 228 227
285 281 274 270 274 278 275 266 257 251 251 253 252 252 254 254 254 254 254 254 251 249 250 249 248 248 247 247 248 247 248 249 246 244 241 240 242 239 233 233 234 231 229 229 232 236 235 238 242 240 235 230 228 227 225 224 223 222 223 225 225 228 230 231 233 233 233 237 241 244 247 248 244 238 232 233 233 230 230 231 232 232 228 226 227 228 228 227
283 277 272 272 277 278 272 262 255 252 252 253 252 252 253 254 255 255 255 254 250 247 247 249 249 248 248 247 245 244 245 247 246 244 242 241 240 240 239 239 237 234 231 230 231 232 233 236 239 238 235 232 231 230 226 224 223 223 224 225 225 226 226 229 234 234 233 236 237 240 249 251 246 239 233 233 234 234 233 234 236 233 228 227 228 229 228 227
281 275 273 275 277 276 268 258 254 253 252 252 253 254 253 253 253 253 253 252 249 247 246 247 248 247 247 245 243 242 243 243 243 242 241 240 237 237 245 250 244 238 234 232 231 231 233 235 237 236 235 235 233 231 229 226 224 225 227 227 225 226 225 226 233 236 236 239 238 241 251 253 247 240 233 231 233 234 233 231 233 233 230 230 231 230 229 226
280 277 275 275 274 272 264 257 254 253 252 252 254 254 253 251 251 251 252 251 249 247 246 246 246 246 245 243 240 241 242 240 239 240 240 240 238 238 246 256 251 241 236 235 233 231 231 232 233 235 237 237 235 234 234 230 225 224 226 225 224 225 226 228 232 234 237 239 238 242 249 251 249 242 235 232 232 235 237 232 230 233 233 232 232 230 227 225
281 279 275 272 272 268 260 255 255 253 253 254 254 253 253 251 250 250 250 250 249 246 245 245 245 244 244 243 240 240 241 238 236 238 238 236 236 238 245 254 252 240 232 235 235 230 229 229 228 230 233 234 233 232 232 230 226 226 225 223 224 224 225 229 232 233 238 238 234 238 246 250 250 245 239 238 233 233 239 237 233 237 238 234 231 228 226 225
283 279 271 268 270 265 256 255 256 254 254 256 255 254 253 250 249 250 250 249 246 244 244 244 244 244 244 244 242 241 240 236 236 238 237 236 236 236 241 250 247 239 236 240 239 232 231 228 225 225 228 228 228 228 227 226 227 229 227 224 223 222 222 226 229 230 236 237 233 238 246 251 253 247 241 240 237 235 239 238 237 240 239 233 230 228 226 226
282 278 271 268 266 260 255 256 258 254 254 256 254 252 253 251 250 251 250 248 245 245 246 245 245 245 244 244 243 242 241 238 237 238 238 238 237 235 240 245 242 241 244 246 242 234 232 231 229 227 228 228 229 229 228 226 225 228 228 225 223 222 222 224 228 230 233 234 236 238 242 248 251 247 239 236 237 237 237 237 238 241 238 232 229 228 226 225
279 276 274 271 265 258 255 255 257 255 255 256 253 251 253 253 251 250 248 247 247 248 247 244 245 246 244 245 244 242 243 242 240 240 239 239 238 236 239 240 238 244 247 244 242 236 232 235 235 233 232 230 229 229 227 225 225 226 226 225 223 222 222 223 228 232 230 232 238 239 237 241 247 246 239 237 240 239 236 235 237 237 233 230 230 228 225 225
276 275 275 272 266 261 259 258 259 259 257 257 255 252 254 254 252 250 248 248 249 249 247 244 245 246 244 244 244 243 244 244 241 240 239 239 239 239 239 236 234 241 245 240 239 236 232 234 236 240 239 232 229 229 227 226 227 228 226 225 223 222 222 223 228 230 228 232 238 237 234 238 242 243 243 243 244 239 234 234 236 236 233 230 229 227 225 226
276 275 275 273 267 265 264 263 263 262 259 258 256 254 255 255 253 252 250 249 249 248 248 247 246 246 245 243 242 242 244 243 242 241 240 240 239 238 238 235 231 235 240 237 235 233 233 233 235 244 245 235 228 227 227 227 228 228 229 227 224 223 222 224 228 228 229 234 238 235 235 239 240 239 240 241 240 238 236 234 234 238 237 230 225 225 226 228
277 276 277 275 270 267 265 264 264 262 258 258 256 254 255 255 255 254 252 251 250 248 249 249 248 248 246 244 243 243 242 243 242 241 240 240 238 235 234 232 232 235 237 234 232 232 233 234 237 244 246 238 230 226 225 227 227 227 228 228 226 225 224 225 228 228 230 235 236 234 236 240 241 239 239 238 236 236 236 233 232 237 238 233 228 228 228 227
277 277 277 276 271 269 267 265 264 261 257 256 255 254 255 255 256 256 254 252 250 248 248 251 252 250 247 245 245 245 243 242 242 241 239 238 236 234 232 232 233 236 234 232 232 233 233 236 238 243 244 240 232 226 224 226 227 226 227 226 225 225 225 226 228 227 228 232 234 234 238 241 240 239 240 240 238 236 235 233 233 236 237 234 230 229 229 226
279 277 276 274 272 270 269 266 264 261 258 256 255 254 254 254 257 258 254 251 249 248 248 250 252 251 248 245 246 247 246 244 243 242 240 237 235 234 233 233 234 233 231 231 232 231 232 235 238 242 242 239 236 230 224 224 226 228 227 224 222 225 227 229 230 228 227 228 231 235 239 240 238 235 236 238 238 238 237 234 233 233 233 231 227 225 227 227